TimeEDT,TemperatureF,Dew PointF,Humidity,Sea Level PressureIn,VisibilityMPH,Wind Direction,Wind SpeedMPH,Gust SpeedMPH,PrecipitationIn,Events,Conditions,WindDirDegrees,DateUTC
12:53 AM,71.1,68.0,90,30.21,10.0,NE,5.8,-,N/A,,Clear,50,2013-07-14 04:53:00
1:53 AM,71.1,68.0,90,30.20,10.0,Calm,Calm,-,N/A,,Clear,0,2013-07-14 05:53:00
2:53 AM,70.0,68.0,93,30.20,10.0,Calm,Calm,-,N/A,,Clear,0,2013-07-14 06:53:00
3:53 AM,71.1,68.0,90,30.19,10.0,Calm,Calm,-,N/A,,Clear,0,2013-07-14 07:53:00
4:53 AM,70.0,66.9,90,30.20,10.0,Calm,Calm,-,N/A,,Clear,0,2013-07-14 08:53:00
5:53 AM,70.0,68.0,93,30.22,8.0,Calm,Calm,-,N/A,,Clear,0,2013-07-14 09:53:00
6:53 AM,72.0,68.0,87,30.24,8.0,Calm,Calm,-,N/A,,Clear,0,2013-07-14 10:53:00
7:53 AM,75.0,70.0,84,30.25,9.0,Calm,Calm,-,N/A,,Clear,0,2013-07-14 11:53:00
8:53 AM,77.0,70.0,79,30.25,10.0,Calm,Calm,-,N/A,,Clear,0,2013-07-14 12:53:00
9:53 AM,77.0,71.1,82,30.26,10.0,North,5.8,-,N/A,,Clear,10,2013-07-14 13:53:00
10:53 AM,79.0,73.0,82,30.24,10.0,NNE,8.1,-,N/A,,Clear,30,2013-07-14 14:53:00
11:53 AM,78.1,73.0,84,30.24,10.0,NE,9.2,-,N/A,,Clear,40,2013-07-14 15:53:00
12:53 PM,79.0,73.0,82,30.25,10.0,NE,9.2,-,N/A,,Scattered Clouds,40,2013-07-14 16:53:00
1:53 PM,78.1,73.9,87,30.25,10.0,NE,6.9,-,N/A,,Mostly Cloudy,40,2013-07-14 17:53:00
2:53 PM,80.1,73.9,81,30.24,10.0,NE,9.2,-,N/A,,Scattered Clouds,40,2013-07-14 18:53:00
3:53 PM,80.1,73.9,81,30.23,10.0,NE,12.7,-,N/A,,Scattered Clouds,40,2013-07-14 19:53:00
4:53 PM,79.0,73.0,82,30.23,10.0,NE,11.5,-,N/A,,Scattered Clouds,50,2013-07-14 20:53:00
5:53 PM,78.1,73.0,84,30.23,10.0,NE,8.1,-,N/A,,Scattered Clouds,40,2013-07-14 21:53:00
6:53 PM,77.0,72.0,84,30.22,10.0,NE,8.1,-,N/A,,Overcast,50,2013-07-14 22:53:00
7:53 PM,80.1,72.0,76,30.22,10.0,NE,5.8,-,N/A,,Overcast,50,2013-07-14 23:53:00
8:53 PM,75.0,72.0,90,30.22,10.0,NE,5.8,-,N/A,,Scattered Clouds,50,2013-07-15 00:53:00
9:53 PM,75.0,72.0,90,30.23,10.0,NE,5.8,-,N/A,,Clear,40,2013-07-15 01:53:00
10:53 PM,75.0,72.0,90,30.24,10.0,NE,3.5,-,N/A,,Clear,40,2013-07-15 02:53:00
11:53 PM,75.0,73.0,94,30.25,10.0,Calm,Calm,-,N/A,,Scattered Clouds,0,2013-07-15 03:53:00